Year,Month,Day,Hour,Minute,Value (Times are PST for barometer in hPa)
2020,09,28,00,00,1028.30
2020,09,28,00,02,1028.30
2020,09,28,00,03,1028.30
2020,09,28,00,04,1028.30
2020,09,28,00,06,1028.30
2020,09,28,00,07,1028.30
2020,09,28,00,09,1028.30
2020,09,28,00,10,1028.30
2020,09,28,00,12,1028.30
2020,09,28,00,13,1028.20
2020,09,28,00,14,1028.20
2020,09,28,00,16,1028.20
2020,09,28,00,17,1028.20
2020,09,28,00,18,1028.20
2020,09,28,00,19,1028.20
2020,09,28,00,21,1028.10
2020,09,28,00,22,1028.10
2020,09,28,00,23,1028.10
2020,09,28,00,24,1028.10
2020,09,28,00,26,1028.00
2020,09,28,00,27,1028.00
2020,09,28,00,28,1028.00
2020,09,28,00,29,1028.00
2020,09,28,00,30,1028.00
2020,09,28,00,32,1028.00
2020,09,28,00,33,1028.00
2020,09,28,00,34,1028.00
2020,09,28,00,36,1028.00
2020,09,28,00,37,1028.00
2020,09,28,00,38,1028.00
2020,09,28,00,39,1027.90
2020,09,28,00,41,1027.90
2020,09,28,00,42,1027.90
2020,09,28,00,43,1027.90
2020,09,28,00,44,1027.90
2020,09,28,00,46,1027.90
2020,09,28,00,47,1027.90
2020,09,28,00,48,1027.90
2020,09,28,00,49,1027.90
2020,09,28,00,51,1027.90
2020,09,28,00,52,1027.90
2020,09,28,00,53,1027.90
2020,09,28,00,54,1027.90
2020,09,28,00,56,1027.90
2020,09,28,00,57,1027.90
2020,09,28,00,58,1027.90
2020,09,28,00,59,1027.90
2020,09,28,01,01,1027.90
2020,09,28,01,02,1027.90
2020,09,28,01,03,1027.90
2020,09,28,01,04,1027.90
2020,09,28,01,06,1027.90
2020,09,28,01,07,1027.90
2020,09,28,01,08,1027.90
2020,09,28,01,09,1027.90
2020,09,28,01,10,1027.90
2020,09,28,01,11,1027.90
2020,09,28,01,12,1027.90
2020,09,28,01,13,1027.90
2020,09,28,01,14,1027.90
2020,09,28,01,15,1027.90
2020,09,28,01,16,1027.90
2020,09,28,01,17,1027.90
2020,09,28,01,18,1027.90
2020,09,28,01,19,1027.90
2020,09,28,01,20,1027.90
2020,09,28,01,21,1027.90
2020,09,28,01,22,1027.90
2020,09,28,01,23,1027.90
2020,09,28,01,24,1027.90
2020,09,28,01,25,1027.90
2020,09,28,01,26,1027.90
2020,09,28,01,27,1027.90
2020,09,28,01,28,1027.90
2020,09,28,01,29,1027.90
2020,09,28,01,30,1027.90
2020,09,28,01,31,1027.90
2020,09,28,01,32,1027.80
2020,09,28,01,33,1027.80
2020,09,28,01,34,1027.80
2020,09,28,01,35,1027.80
2020,09,28,01,36,1027.80
2020,09,28,01,37,1027.80
2020,09,28,01,38,1027.80
2020,09,28,01,39,1027.80
2020,09,28,01,40,1027.80
2020,09,28,01,41,1027.80
2020,09,28,01,42,1027.80
2020,09,28,01,43,1027.80
2020,09,28,01,44,1027.80
2020,09,28,01,45,1027.80
2020,09,28,01,46,1027.80
2020,09,28,01,47,1027.80
2020,09,28,01,48,1027.80
2020,09,28,01,49,1027.80
2020,09,28,01,50,1027.80
2020,09,28,01,51,1027.80
2020,09,28,01,52,1027.80
2020,09,28,01,53,1027.80
2020,09,28,01,54,1027.80
2020,09,28,01,55,1027.80
2020,09,28,01,56,1027.80
2020,09,28,01,57,1027.80
2020,09,28,01,58,1027.80
2020,09,28,01,59,1027.80
2020,09,28,02,00,1027.80
2020,09,28,02,01,1027.80
2020,09,28,02,02,1027.80
2020,09,28,02,03,1027.80
2020,09,28,02,04,1027.80
2020,09,28,02,05,1027.80
2020,09,28,02,06,1027.80
2020,09,28,02,07,1027.80
2020,09,28,02,08,1027.80
2020,09,28,02,09,1027.80
2020,09,28,02,10,1027.80
2020,09,28,02,11,1027.80
2020,09,28,02,12,1027.80
2020,09,28,02,13,1027.80
2020,09,28,02,14,1027.80
2020,09,28,02,15,1027.80
2020,09,28,02,16,1027.80
2020,09,28,02,17,1027.80
2020,09,28,02,18,1027.80
2020,09,28,02,19,1027.80
2020,09,28,02,20,1027.80
2020,09,28,02,21,1027.80
2020,09,28,02,22,1027.80
2020,09,28,02,23,1027.80
2020,09,28,02,24,1027.80
2020,09,28,02,25,1027.80
2020,09,28,02,26,1027.80
2020,09,28,02,27,1027.80
2020,09,28,02,28,1027.80
2020,09,28,02,29,1027.80
2020,09,28,02,30,1027.80
2020,09,28,02,31,1027.80
2020,09,28,02,32,1027.80
2020,09,28,02,33,1027.80
2020,09,28,02,34,1027.80
2020,09,28,02,35,1027.80
2020,09,28,02,36,1027.80
2020,09,28,02,37,1027.80
2020,09,28,02,38,1027.80
2020,09,28,02,39,1027.80
2020,09,28,02,40,1027.80
2020,09,28,02,41,1027.80
2020,09,28,02,42,1027.80
2020,09,28,02,43,1027.80
2020,09,28,02,44,1027.80
2020,09,28,02,45,1027.80
2020,09,28,02,46,1027.80
2020,09,28,02,47,1027.80
2020,09,28,02,48,1027.80
2020,09,28,02,49,1027.80
2020,09,28,02,50,1027.80
2020,09,28,02,51,1027.80
2020,09,28,02,52,1027.80
2020,09,28,02,53,1027.80
2020,09,28,02,54,1027.80
2020,09,28,02,55,1027.80
2020,09,28,02,56,1027.80
2020,09,28,02,57,1027.80
2020,09,28,02,58,1027.80
2020,09,28,02,59,1027.80
2020,09,28,03,00,1027.80
2020,09,28,03,02,1027.80
2020,09,28,03,03,1027.80
2020,09,28,03,04,1027.80
2020,09,28,03,06,1027.70
2020,09,28,03,07,1027.70
2020,09,28,03,08,1027.70
2020,09,28,03,09,1027.70
2020,09,28,03,11,1027.70
2020,09,28,03,12,1027.60
2020,09,28,03,13,1027.60
2020,09,28,03,14,1027.50
2020,09,28,03,16,1027.50
2020,09,28,03,17,1027.50
2020,09,28,03,18,1027.50
2020,09,28,03,19,1027.50
2020,09,28,03,21,1027.40
2020,09,28,03,22,1027.40
2020,09,28,03,23,1027.40
2020,09,28,03,24,1027.40
2020,09,28,03,26,1027.40
2020,09,28,03,27,1027.40
2020,09,28,03,28,1027.40
2020,09,28,03,29,1027.40
2020,09,28,03,31,1027.40
2020,09,28,03,32,1027.40
2020,09,28,03,33,1027.40
2020,09,28,03,34,1027.40
2020,09,28,03,36,1027.50
2020,09,28,03,37,1027.40
2020,09,28,03,38,1027.40
2020,09,28,03,39,1027.40
2020,09,28,03,41,1027.50
2020,09,28,03,42,1027.50
2020,09,28,03,43,1027.50
2020,09,28,03,44,1027.50
2020,09,28,03,46,1027.50
2020,09,28,03,47,1027.40
2020,09,28,03,48,1027.40
2020,09,28,03,49,1027.40
2020,09,28,03,51,1027.40
2020,09,28,03,52,1027.40
2020,09,28,03,53,1027.40
2020,09,28,03,54,1027.40
2020,09,28,03,56,1027.40
2020,09,28,03,57,1027.40
2020,09,28,03,58,1027.40
2020,09,28,03,59,1027.40
2020,09,28,04,01,1027.40
2020,09,28,04,02,1027.40
2020,09,28,04,03,1027.40
2020,09,28,04,04,1027.40
2020,09,28,04,06,1027.40
2020,09,28,04,07,1027.30
2020,09,28,04,08,1027.30
2020,09,28,04,09,1027.30
2020,09,28,04,29,1027.30
2020,09,28,04,30,1027.30
2020,09,28,04,31,1027.30
2020,09,28,04,32,1027.30
2020,09,28,04,33,1027.30
2020,09,28,04,34,1027.30
2020,09,28,04,35,1027.30
2020,09,28,04,36,1027.30
2020,09,28,04,37,1027.30
2020,09,28,04,38,1027.30
2020,09,28,04,39,1027.20
2020,09,28,04,40,1027.20
2020,09,28,04,41,1027.20
2020,09,28,04,42,1027.20
2020,09,28,04,43,1027.10
2020,09,28,04,44,1027.10
2020,09,28,04,45,1027.10
2020,09,28,04,46,1027.10
2020,09,28,04,47,1027.00
2020,09,28,04,48,1027.00
2020,09,28,04,49,1027.00
2020,09,28,04,50,1026.90
2020,09,28,04,51,1026.90
2020,09,28,04,52,1026.90
2020,09,28,04,54,1026.90
2020,09,28,04,56,1026.90
2020,09,28,04,57,1026.90
2020,09,28,04,58,1026.90
2020,09,28,04,59,1026.90
2020,09,28,05,01,1026.90
2020,09,28,05,02,1026.80
2020,09,28,05,03,1026.80
2020,09,28,05,04,1026.80
2020,09,28,05,06,1026.80
2020,09,28,05,07,1026.80
2020,09,28,05,08,1026.80
2020,09,28,05,09,1026.80
2020,09,28,05,11,1026.80
2020,09,28,05,12,1026.80
2020,09,28,05,13,1026.80
2020,09,28,05,14,1026.80
2020,09,28,05,16,1026.80
2020,09,28,05,17,1026.80
2020,09,28,05,18,1026.80
2020,09,28,05,19,1026.80
2020,09,28,05,21,1026.70
2020,09,28,05,22,1026.70
2020,09,28,05,23,1026.70
2020,09,28,05,24,1026.70
2020,09,28,05,26,1026.60
2020,09,28,05,27,1026.60
2020,09,28,05,28,1026.50
2020,09,28,05,29,1026.50
2020,09,28,05,31,1026.50
2020,09,28,05,32,1026.50
2020,09,28,05,33,1026.50
2020,09,28,05,34,1026.50
2020,09,28,05,36,1026.40
2020,09,28,05,37,1026.40
2020,09,28,05,38,1026.40
2020,09,28,05,39,1026.40
2020,09,28,05,41,1026.40
2020,09,28,05,42,1026.30
2020,09,28,05,43,1026.30
2020,09,28,05,44,1026.30
2020,09,28,05,46,1026.30
2020,09,28,05,47,1026.30
2020,09,28,05,48,1026.30
2020,09,28,05,49,1026.30
2020,09,28,05,51,1026.30
2020,09,28,05,52,1026.30
2020,09,28,05,53,1026.30
2020,09,28,05,54,1026.30
2020,09,28,05,55,1026.30
2020,09,28,05,56,1026.30
2020,09,28,05,57,1026.30
2020,09,28,05,58,1026.30
2020,09,28,05,59,1026.30
2020,09,28,06,00,1026.30
2020,09,28,06,01,1026.30
2020,09,28,06,02,1026.30
2020,09,28,06,03,1026.30
2020,09,28,06,04,1026.30
2020,09,28,06,06,1026.30
2020,09,28,06,07,1026.30
2020,09,28,06,08,1026.30
2020,09,28,06,09,1026.30
2020,09,28,06,10,1026.30
2020,09,28,06,11,1026.30
2020,09,28,06,12,1026.30
2020,09,28,06,13,1026.30
2020,09,28,06,14,1026.30
2020,09,28,06,15,1026.30
2020,09,28,06,16,1026.30
2020,09,28,06,17,1026.30
2020,09,28,06,18,1026.30
2020,09,28,06,19,1026.30
2020,09,28,06,21,1026.30
2020,09,28,06,22,1026.30
2020,09,28,06,23,1026.30
2020,09,28,06,24,1026.30
2020,09,28,06,26,1026.30
2020,09,28,06,27,1026.30
2020,09,28,06,28,1026.30
2020,09,28,06,29,1026.30
2020,09,28,06,30,1026.30
2020,09,28,06,32,1026.30
2020,09,28,06,33,1026.30
2020,09,28,06,34,1026.30
2020,09,28,06,36,1026.30
2020,09,28,06,37,1026.30
2020,09,28,06,38,1026.30
2020,09,28,06,39,1026.30
2020,09,28,06,40,1026.30
2020,09,28,06,41,1026.30
2020,09,28,06,42,1026.30
2020,09,28,06,43,1026.30
2020,09,28,06,44,1026.30
2020,09,28,06,45,1026.30
2020,09,28,06,46,1026.30
2020,09,28,06,47,1026.30
2020,09,28,06,48,1026.30
2020,09,28,06,49,1026.30
2020,09,28,06,50,1026.30
2020,09,28,06,51,1026.30
2020,09,28,06,52,1026.30
2020,09,28,06,53,1026.30
2020,09,28,06,54,1026.30
2020,09,28,06,55,1026.30
2020,09,28,06,56,1026.30
2020,09,28,06,57,1026.30
2020,09,28,06,58,1026.30
2020,09,28,06,59,1026.30
2020,09,28,07,00,1026.30
2020,09,28,07,01,1026.30
2020,09,28,07,02,1026.30
2020,09,28,07,03,1026.30
2020,09,28,07,04,1026.30
2020,09,28,07,05,1026.30
2020,09,28,07,06,1026.30
2020,09,28,07,07,1026.30
2020,09,28,07,08,1026.30
2020,09,28,07,09,1026.30
2020,09,28,07,10,1026.30
2020,09,28,07,11,1026.30
2020,09,28,07,12,1026.30
2020,09,28,07,13,1026.30
2020,09,28,07,14,1026.30
2020,09,28,07,15,1026.30
2020,09,28,07,16,1026.30
2020,09,28,07,17,1026.20
2020,09,28,07,18,1026.20
2020,09,28,07,19,1026.20
2020,09,28,07,20,1026.20
2020,09,28,07,21,1026.20
2020,09,28,07,22,1026.30
2020,09,28,07,23,1026.30
2020,09,28,07,24,1026.30
2020,09,28,07,25,1026.30
2020,09,28,07,26,1026.20
2020,09,28,07,27,1026.20
2020,09,28,07,28,1026.30
2020,09,28,07,29,1026.30
2020,09,28,07,30,1026.30
2020,09,28,07,31,1026.30
2020,09,28,07,32,1026.30
2020,09,28,07,33,1026.30
2020,09,28,07,34,1026.30
2020,09,28,07,35,1026.30
2020,09,28,07,36,1026.30
2020,09,28,07,37,1026.30
2020,09,28,07,38,1026.30
2020,09,28,07,39,1026.20
2020,09,28,07,40,1026.30
2020,09,28,07,41,1026.20
2020,09,28,07,42,1026.30
2020,09,28,07,43,1026.30
2020,09,28,07,44,1026.30
2020,09,28,07,45,1026.30
2020,09,28,07,46,1026.30
2020,09,28,07,47,1026.30
2020,09,28,07,48,1026.30
2020,09,28,07,49,1026.30
2020,09,28,07,50,1026.30
2020,09,28,07,51,1026.30
2020,09,28,07,52,1026.30
2020,09,28,07,53,1026.30
2020,09,28,07,54,1026.30
2020,09,28,07,55,1026.30
2020,09,28,07,57,1026.30
2020,09,28,07,58,1026.30
2020,09,28,07,59,1026.30
2020,09,28,08,00,1026.30
2020,09,28,08,02,1026.20
2020,09,28,08,03,1026.20
2020,09,28,08,04,1026.20
2020,09,28,08,06,1026.20
2020,09,28,08,07,1026.20
2020,09,28,08,08,1026.20
2020,09,28,08,09,1026.20
2020,09,28,08,11,1026.20
2020,09,28,08,12,1026.20
2020,09,28,08,13,1026.20
2020,09,28,08,14,1026.20
2020,09,28,08,16,1026.20
2020,09,28,08,17,1026.20
2020,09,28,08,18,1026.20
2020,09,28,08,19,1026.20
2020,09,28,08,21,1026.30
2020,09,28,08,22,1026.30
2020,09,28,08,23,1026.30
2020,09,28,08,24,1026.30
2020,09,28,08,26,1026.30
2020,09,28,08,27,1026.30
2020,09,28,08,28,1026.30
2020,09,28,08,29,1026.30
2020,09,28,08,31,1026.30
2020,09,28,08,32,1026.20
2020,09,28,08,33,1026.20
2020,09,28,08,34,1026.20
2020,09,28,08,36,1026.20
2020,09,28,08,37,1026.20
2020,09,28,08,38,1026.20
2020,09,28,08,39,1026.20
2020,09,28,08,40,1026.20
2020,09,28,08,41,1026.20
2020,09,28,08,42,1026.20
2020,09,28,08,43,1026.20
2020,09,28,08,44,1026.20
2020,09,28,08,45,1026.20
2020,09,28,08,46,1026.20
2020,09,28,08,47,1026.20
2020,09,28,08,48,1026.20
2020,09,28,08,49,1026.20
2020,09,28,08,50,1026.20
2020,09,28,08,51,1026.20
2020,09,28,08,52,1026.20
2020,09,28,08,53,1026.20
2020,09,28,08,54,1026.20
2020,09,28,08,55,1026.20
2020,09,28,08,56,1026.20
2020,09,28,08,57,1026.20
2020,09,28,08,58,1026.20
2020,09,28,08,59,1026.20
2020,09,28,09,00,1026.20
2020,09,28,09,01,1026.20
2020,09,28,09,02,1026.20
2020,09,28,09,03,1026.20
2020,09,28,09,04,1026.20
2020,09,28,09,06,1026.20
2020,09,28,09,07,1026.20
2020,09,28,09,08,1026.20
2020,09,28,09,09,1026.20
2020,09,28,09,10,1026.20
2020,09,28,09,11,1026.20
2020,09,28,09,12,1026.20
2020,09,28,09,13,1026.20
2020,09,28,09,14,1026.20
2020,09,28,09,15,1026.30
2020,09,28,09,16,1026.30
2020,09,28,09,17,1026.30
2020,09,28,09,18,1026.30
2020,09,28,09,19,1026.30
2020,09,28,09,20,1026.30
2020,09,28,09,21,1026.30
2020,09,28,09,22,1026.20
2020,09,28,09,23,1026.20
2020,09,28,09,24,1026.20
2020,09,28,09,25,1026.20
2020,09,28,09,26,1026.20
2020,09,28,09,27,1026.20
2020,09,28,09,28,1026.30
2020,09,28,09,29,1026.30
2020,09,28,09,30,1026.30
2020,09,28,09,31,1026.30
2020,09,28,09,32,1026.30
2020,09,28,09,33,1026.30
2020,09,28,09,34,1026.30
2020,09,28,09,35,1026.30
2020,09,28,09,36,1026.30
2020,09,28,09,37,1026.30
2020,09,28,09,38,1026.30
2020,09,28,09,39,1026.20
2020,09,28,09,40,1026.20
2020,09,28,09,41,1026.20
2020,09,28,09,42,1026.20
2020,09,28,09,43,1026.20
2020,09,28,09,44,1026.20
2020,09,28,09,45,1026.20
2020,09,28,09,46,1026.20
2020,09,28,09,47,1026.20
2020,09,28,09,48,1026.20
2020,09,28,09,49,1026.20
2020,09,28,09,50,1026.20
2020,09,28,09,51,1026.20
2020,09,28,09,52,1026.20
2020,09,28,09,53,1026.20
2020,09,28,09,54,1026.20
2020,09,28,09,55,1026.20
2020,09,28,09,56,1026.20
2020,09,28,09,57,1026.20
2020,09,28,09,58,1026.20
2020,09,28,09,59,1026.20
2020,09,28,10,00,1026.20
2020,09,28,10,01,1026.20
2020,09,28,10,02,1026.10
2020,09,28,10,03,1026.10
2020,09,28,10,04,1026.10
2020,09,28,10,05,1026.10
2020,09,28,10,07,1026.10
2020,09,28,10,08,1026.10
2020,09,28,10,09,1026.00
2020,09,28,10,11,1026.00
2020,09,28,10,12,1026.00
2020,09,28,10,13,1026.00
2020,09,28,10,14,1026.00
2020,09,28,10,16,1026.00
2020,09,28,10,17,1025.90
2020,09,28,10,18,1025.90
2020,09,28,10,19,1025.90
2020,09,28,10,21,1025.80
2020,09,28,10,22,1025.80
2020,09,28,10,23,1025.80
2020,09,28,10,24,1025.80
2020,09,28,10,26,1025.80
2020,09,28,10,27,1025.80
2020,09,28,10,28,1025.80
2020,09,28,10,29,1025.80
2020,09,28,10,31,1025.80
2020,09,28,10,32,1025.80
2020,09,28,10,33,1025.80
2020,09,28,10,34,1025.80
2020,09,28,10,36,1025.80
2020,09,28,10,37,1025.80
2020,09,28,10,38,1025.80
2020,09,28,10,39,1025.80
2020,09,28,10,41,1025.80
2020,09,28,10,42,1025.80
2020,09,28,10,43,1025.80
2020,09,28,10,44,1025.80
2020,09,28,10,46,1025.80
2020,09,28,10,47,1025.80
2020,09,28,10,48,1025.80
2020,09,28,10,49,1025.80
2020,09,28,10,51,1025.80
2020,09,28,10,52,1025.80
2020,09,28,10,53,1025.80
2020,09,28,10,54,1025.80
2020,09,28,10,56,1025.80
2020,09,28,10,57,1025.80
2020,09,28,10,58,1025.80
2020,09,28,10,59,1025.80
2020,09,28,11,01,1025.70
2020,09,28,11,02,1025.70
2020,09,28,11,03,1025.70
2020,09,28,11,04,1025.70
2020,09,28,11,06,1025.70
2020,09,28,11,07,1025.70
2020,09,28,11,08,1025.70
2020,09,28,11,09,1025.60
2020,09,28,11,11,1025.60
2020,09,28,11,12,1025.60
2020,09,28,11,13,1025.60
2020,09,28,11,14,1025.60
2020,09,28,11,16,1025.60
2020,09,28,11,17,1025.60
2020,09,28,11,18,1025.60
2020,09,28,11,19,1025.60
2020,09,28,11,21,1025.60
2020,09,28,11,22,1025.50
2020,09,28,11,23,1025.60
2020,09,28,11,24,1025.60
2020,09,28,11,25,1025.60
2020,09,28,11,26,1025.60
2020,09,28,11,27,1025.50
2020,09,28,11,28,1025.60
2020,09,28,11,29,1025.50
2020,09,28,11,31,1025.50
2020,09,28,11,32,1025.50
2020,09,28,11,33,1025.50
2020,09,28,11,34,1025.50
2020,09,28,11,36,1025.50
2020,09,28,11,37,1025.50
2020,09,28,11,38,1025.40
2020,09,28,11,39,1025.40
2020,09,28,11,41,1025.30
2020,09,28,11,42,1025.30
2020,09,28,11,43,1025.30
2020,09,28,11,44,1025.30
2020,09,28,11,45,1025.30
2020,09,28,11,46,1025.30
2020,09,28,11,47,1025.30
2020,09,28,11,48,1025.30
2020,09,28,11,49,1025.30
2020,09,28,11,50,1025.30
2020,09,28,11,51,1025.30
2020,09,28,11,52,1025.30
2020,09,28,11,53,1025.30
2020,09,28,11,54,1025.30
2020,09,28,11,55,1025.20
2020,09,28,11,56,1025.20
2020,09,28,11,57,1025.20
2020,09,28,11,58,1025.20
2020,09,28,11,59,1025.20
2020,09,28,12,00,1025.20
2020,09,28,12,01,1025.20
2020,09,28,12,02,1025.20
2020,09,28,12,03,1025.30
2020,09,28,12,04,1025.30
2020,09,28,12,06,1025.20
2020,09,28,12,07,1025.20
2020,09,28,12,08,1025.20
2020,09,28,12,09,1025.20
2020,09,28,12,10,1025.20
2020,09,28,12,11,1025.20
2020,09,28,12,12,1025.20
2020,09,28,12,13,1025.20
2020,09,28,12,14,1025.20
2020,09,28,12,15,1025.20
2020,09,28,12,16,1025.20
2020,09,28,12,17,1025.20
2020,09,28,12,18,1025.20
2020,09,28,12,19,1025.20
2020,09,28,12,21,1025.20
2020,09,28,12,22,1025.20
2020,09,28,12,23,1025.20
2020,09,28,12,24,1025.20
2020,09,28,12,25,1025.20
2020,09,28,12,26,1025.20
2020,09,28,12,27,1025.20
2020,09,28,12,28,1025.10
2020,09,28,12,29,1025.10
2020,09,28,12,30,1025.10
2020,09,28,12,32,1025.10
2020,09,28,12,33,1025.00
2020,09,28,12,34,1025.00
2020,09,28,12,36,1025.00
2020,09,28,12,37,1025.00
2020,09,28,12,38,1024.90
2020,09,28,12,39,1024.90
2020,09,28,12,40,1024.90
2020,09,28,12,41,1024.80
2020,09,28,12,42,1024.80
2020,09,28,12,43,1024.80
2020,09,28,12,44,1024.80
2020,09,28,12,45,1024.80
2020,09,28,12,46,1024.80
2020,09,28,12,47,1024.80
2020,09,28,12,48,1024.80
2020,09,28,12,49,1024.80
2020,09,28,12,50,1024.70
2020,09,28,12,51,1024.70
2020,09,28,12,52,1024.70
2020,09,28,12,53,1024.70
2020,09,28,12,54,1024.70
2020,09,28,12,55,1024.70
2020,09,28,12,56,1024.70
2020,09,28,12,57,1024.70
2020,09,28,12,58,1024.70
2020,09,28,12,59,1024.70
2020,09,28,13,00,1024.70
2020,09,28,13,01,1024.70
2020,09,28,13,02,1024.70
2020,09,28,13,03,1024.70
2020,09,28,13,04,1024.70
2020,09,28,13,05,1024.70
2020,09,28,13,06,1024.60
2020,09,28,13,07,1024.60
2020,09,28,13,08,1024.60
2020,09,28,13,09,1024.60
2020,09,28,13,10,1024.60
2020,09,28,13,11,1024.60
2020,09,28,13,12,1024.60
2020,09,28,13,13,1024.50
2020,09,28,13,14,1024.40
2020,09,28,13,15,1024.40
2020,09,28,13,16,1024.40
2020,09,28,13,17,1024.40
2020,09,28,13,18,1024.30
2020,09,28,13,19,1024.30
2020,09,28,13,20,1024.30
2020,09,28,13,21,1024.30
2020,09,28,13,22,1024.30
2020,09,28,13,23,1024.20
2020,09,28,13,24,1024.20
2020,09,28,13,25,1024.20
2020,09,28,13,26,1024.20
2020,09,28,13,27,1024.20
2020,09,28,13,28,1024.20
2020,09,28,13,29,1024.20
2020,09,28,13,30,1024.20
2020,09,28,13,31,1024.20
2020,09,28,13,32,1024.20
2020,09,28,13,33,1024.20
2020,09,28,13,34,1024.10
2020,09,28,13,36,1024.10
2020,09,28,13,37,1024.10
2020,09,28,13,38,1024.10
2020,09,28,13,39,1024.10
2020,09,28,13,40,1024.10
2020,09,28,13,42,1024.10
2020,09,28,13,43,1024.00
2020,09,28,13,44,1024.00
2020,09,28,13,46,1024.00
2020,09,28,13,47,1024.00
2020,09,28,13,48,1024.00
2020,09,28,13,49,1024.00
2020,09,28,13,51,1023.90
2020,09,28,13,52,1023.90
2020,09,28,13,53,1023.90
2020,09,28,13,54,1023.80
2020,09,28,13,56,1023.80
2020,09,28,13,57,1023.80
2020,09,28,13,58,1023.80
2020,09,28,13,59,1023.80
2020,09,28,14,01,1023.70
2020,09,28,14,02,1023.70
2020,09,28,14,03,1023.70
2020,09,28,14,04,1023.70
2020,09,28,14,06,1023.70
2020,09,28,14,07,1023.70
2020,09,28,14,08,1023.70
2020,09,28,14,09,1023.70
2020,09,28,14,11,1023.60
2020,09,28,14,12,1023.60
2020,09,28,14,13,1023.60
2020,09,28,14,14,1023.60
2020,09,28,14,16,1023.60
2020,09,28,14,17,1023.50
2020,09,28,14,18,1023.50
2020,09,28,14,19,1023.50
2020,09,28,14,21,1023.40
2020,09,28,14,22,1023.40
2020,09,28,14,23,1023.30
2020,09,28,14,24,1023.30
2020,09,28,14,26,1023.20
2020,09,28,14,27,1023.20
2020,09,28,14,28,1023.20
2020,09,28,14,29,1023.20
2020,09,28,14,31,1023.20
2020,09,28,14,32,1023.20
2020,09,28,14,33,1023.20
2020,09,28,14,34,1023.20
2020,09,28,14,36,1023.20
2020,09,28,14,37,1023.20
2020,09,28,14,38,1023.10
2020,09,28,14,39,1023.10
2020,09,28,14,41,1023.10
2020,09,28,14,42,1023.10
2020,09,28,14,43,1023.10
2020,09,28,14,44,1023.10
2020,09,28,14,46,1023.10
2020,09,28,14,47,1023.10
2020,09,28,14,48,1023.10
2020,09,28,14,49,1023.10
2020,09,28,14,51,1023.10
2020,09,28,14,52,1023.10
2020,09,28,14,53,1023.10
2020,09,28,14,54,1023.10
2020,09,28,14,56,1023.10
2020,09,28,14,57,1023.10
2020,09,28,14,58,1023.00
2020,09,28,14,59,1023.00
2020,09,28,15,01,1023.00
2020,09,28,15,02,1023.00
2020,09,28,15,03,1023.00
2020,09,28,15,04,1023.00
2020,09,28,15,06,1022.90
2020,09,28,15,07,1023.00
2020,09,28,15,08,1022.90
2020,09,28,15,09,1022.90
2020,09,28,15,11,1022.90
2020,09,28,15,12,1022.90
2020,09,28,15,13,1022.90
2020,09,28,15,14,1022.90
2020,09,28,15,21,1022.70
2020,09,28,15,22,1022.70
2020,09,28,15,23,1022.70
2020,09,28,15,24,1022.70
2020,09,28,15,26,1022.60
2020,09,28,15,27,1022.70
2020,09,28,15,28,1022.60
2020,09,28,15,29,1022.70
2020,09,28,15,30,1022.60
2020,09,28,15,31,1022.70
2020,09,28,15,32,1022.60
2020,09,28,15,33,1022.60
2020,09,28,15,34,1022.60
2020,09,28,15,35,1022.60
2020,09,28,15,36,1022.60
2020,09,28,15,37,1022.60
2020,09,28,15,38,1022.60
2020,09,28,15,39,1022.60
2020,09,28,15,40,1022.60
2020,09,28,15,41,1022.60
2020,09,28,15,42,1022.60
2020,09,28,15,43,1022.60
2020,09,28,15,44,1022.60
2020,09,28,15,45,1022.60
2020,09,28,15,46,1022.60
2020,09,28,15,47,1022.60
2020,09,28,15,48,1022.60
2020,09,28,15,49,1022.60
2020,09,28,15,50,1022.60
2020,09,28,15,51,1022.60
2020,09,28,15,52,1022.60
2020,09,28,15,53,1022.60
2020,09,28,15,54,1022.50
2020,09,28,15,55,1022.50
2020,09,28,15,56,1022.50
2020,09,28,15,57,1022.50
2020,09,28,15,58,1022.50
2020,09,28,15,59,1022.40
2020,09,28,16,00,1022.40
2020,09,28,16,01,1022.40
2020,09,28,16,02,1022.30
2020,09,28,16,03,1022.30
2020,09,28,16,04,1022.20
2020,09,28,16,05,1022.20
2020,09,28,16,06,1022.20
2020,09,28,16,07,1022.20
2020,09,28,16,08,1022.10
2020,09,28,16,09,1022.10
2020,09,28,16,10,1022.10
2020,09,28,16,11,1022.10
2020,09,28,16,12,1022.10
2020,09,28,16,13,1022.10
2020,09,28,16,14,1022.10
2020,09,28,16,15,1022.10
2020,09,28,16,16,1022.00
2020,09,28,16,17,1022.00
2020,09,28,16,18,1022.00
2020,09,28,16,19,1022.00
2020,09,28,16,20,1022.00
2020,09,28,16,21,1022.00
2020,09,28,16,22,1021.90
2020,09,28,16,23,1021.90
2020,09,28,16,24,1021.90
2020,09,28,16,25,1021.90
2020,09,28,16,26,1021.80
2020,09,28,16,27,1021.80
2020,09,28,16,28,1021.70
2020,09,28,16,29,1021.70
2020,09,28,16,30,1021.70
2020,09,28,16,31,1021.70
2020,09,28,16,32,1021.70
2020,09,28,16,33,1021.70
2020,09,28,16,34,1021.70
2020,09,28,16,35,1021.70
2020,09,28,16,36,1021.60
2020,09,28,16,37,1021.60
2020,09,28,16,38,1021.60
2020,09,28,16,39,1021.60
2020,09,28,16,40,1021.60
2020,09,28,16,41,1021.60
2020,09,28,16,42,1021.60
2020,09,28,16,43,1021.60
2020,09,28,16,44,1021.60
2020,09,28,16,45,1021.60
2020,09,28,16,46,1021.60
2020,09,28,16,47,1021.60
2020,09,28,16,48,1021.60
2020,09,28,16,49,1021.60
2020,09,28,16,50,1021.60
2020,09,28,16,51,1021.50
2020,09,28,16,52,1021.50
2020,09,28,16,53,1021.50
2020,09,28,16,54,1021.50
2020,09,28,16,55,1021.50
2020,09,28,16,56,1021.50
2020,09,28,16,57,1021.50
2020,09,28,16,58,1021.50
2020,09,28,16,59,1021.40
2020,09,28,17,00,1021.40
2020,09,28,17,02,1021.40
2020,09,28,17,03,1021.40
2020,09,28,17,04,1021.40
2020,09,28,17,06,1021.30
2020,09,28,17,07,1021.30
2020,09,28,17,08,1021.30
2020,09,28,17,09,1021.30
2020,09,28,17,11,1021.20
2020,09,28,17,12,1021.20
2020,09,28,17,13,1021.20
2020,09,28,17,14,1021.20
2020,09,28,17,16,1021.10
2020,09,28,17,17,1021.10
2020,09,28,17,18,1021.10
2020,09,28,17,19,1021.10
2020,09,28,17,21,1021.10
2020,09,28,17,22,1021.10
2020,09,28,17,23,1021.10
2020,09,28,17,24,1021.10
2020,09,28,17,26,1021.10
2020,09,28,17,27,1021.10
2020,09,28,17,28,1021.10
2020,09,28,17,29,1021.10
2020,09,28,17,31,1021.00
2020,09,28,17,32,1021.00
2020,09,28,17,33,1021.00
2020,09,28,17,34,1021.00
2020,09,28,17,36,1021.00
2020,09,28,17,37,1020.90
2020,09,28,17,38,1020.90
2020,09,28,17,39,1020.90
2020,09,28,17,41,1020.90
2020,09,28,17,42,1020.90
2020,09,28,17,43,1020.90
2020,09,28,17,44,1020.90
2020,09,28,17,46,1020.80
2020,09,28,17,47,1020.80
2020,09,28,17,48,1020.70
2020,09,28,17,49,1020.70
2020,09,28,17,51,1020.70
2020,09,28,17,52,1020.70
2020,09,28,17,53,1020.60
2020,09,28,17,54,1020.60
2020,09,28,17,56,1020.60
2020,09,28,17,57,1020.60
2020,09,28,17,58,1020.60
2020,09,28,17,59,1020.60
2020,09,28,18,01,1020.60
2020,09,28,18,02,1020.60
2020,09,28,18,03,1020.60
2020,09,28,18,04,1020.60
2020,09,28,18,06,1020.60
2020,09,28,18,07,1020.60
2020,09,28,18,08,1020.60
2020,09,28,18,09,1020.60
2020,09,28,18,11,1020.60
2020,09,28,18,12,1020.50
2020,09,28,18,13,1020.50
2020,09,28,18,14,1020.50
2020,09,28,18,15,1020.50
2020,09,28,18,16,1020.50
2020,09,28,18,17,1020.50